FW0304 Weather Reports


Display with metric or nautical units.
time (UTC)temp
F
wind
direction
speed
MPH
gust
MPH
rain 1hr
in
rain 24hr
in
rain mn
in
humidity
%
barometer
mb
20260507151526 63 204 1.0 3.0 0.00 0.03 0.01 78 1016.7
20260507150027 62 308 1.0 4.0 0.00 0.03 0.01 81 1016.4
20260507144521 60 165 0.0 3.0 0.01 0.03 0.01 81 1016.5
20260507143021 59 311 0.0 2.0 0.01 0.03 0.01 85 1016.2
20260507141530 58 306 1.0 3.0 0.01 0.03 0.01 87 1016.4
20260507140014 57 148 0.0 4.0 0.01 0.03 0.01 89 1016.8
20260507134518 56 348 0.0 2.0 0.00 0.02 0.00 90 1016.6
20260507133006 56 327 0.0 2.0 0.00 0.02 0.00 90 1016.3
20260507131505 56 302 0.0 2.0 0.00 0.03 0.00 91 1015.6
20260507130010 56 298 1.0 2.0 0.00 0.03 0.00 92 1015.6
20260507124515 56 299 0.0 0.0 0.00 0.03 0.00 92 1015.4
20260507123007 56 305 0.0 3.0 0.00 0.03 0.00 92 1015.3
20260507121504 56 297 0.0 3.0 0.00 0.03 0.00 93 1015.0
20260507120012 56 51 0.0 2.0 0.00 0.03 0.00 93 1014.6
20260507114513 56 300 0.0 2.0 0.00 0.03 0.00 93 1014.4
20260507113019 56 303 0.0 2.0 0.00 0.03 0.00 93 1014.4
20260507111504 56 303 0.0 2.0 0.00 0.03 0.00 93 1014.2
20260507110008 57 303 0.0 2.0 0.00 0.03 0.00 93 1014.2
20260507104511 57 319 0.0 3.0 0.00 0.03 0.00 93 1013.8
20260507103023 57 297 0.0 2.0 0.00 0.03 0.00 94 1013.7
20260507101532 57 161 0.0 2.0 0.00 0.03 0.00 94 1013.5
20260507100008 57 306 0.0 2.0 0.00 0.03 0.00 94 1013.6
20260507094512 57 298 0.0 2.0 0.00 0.03 0.00 94 1013.5
20260507093019 57 312 0.0 2.0 0.00 0.03 0.00 94 1013.4
20260507091528 57 306 0.0 2.0 0.00 0.03 0.00 94 1013.8
20260507090024 57 136 0.0 2.0 0.00 0.03 0.00 94 1012.8
20260507084508 57 110 0.0 2.0 0.00 0.03 0.00 94 1012.8
20260507083012 57 267 0.0 2.0 0.00 0.03 0.00 94 1012.9
20260507081517 57 321 0.0 3.0 0.00 0.03 0.00 94 1012.8
20260507080021 57 312 1.0 3.0 0.00 0.03 0.00 94 1013.5
20260507074522 57 284 1.0 3.0 0.00 0.03 0.00 94 1013.6
20260507073011 57 313 1.0 2.0 0.00 0.03 0.00 94 1013.5
20260507071518 57 310 1.0 2.0 0.00 0.03 0.00 94 1013.2
20260507070028 58 306 0.0 2.0 0.00 0.03 0.00 94 1013.0
20260507064523 58 307 0.0 2.0 0.00 0.03 0.00 94 1013.0
20260507063011 58 169 0.0 2.0 0.00 0.03 0.00 94 1013.0
20260507061516 58 265 1.0 2.0 0.00 0.04 0.00 94 1012.9
20260507060021 58 317 1.0 2.0 0.00 0.04 0.00 94 1013.3
20260507054524 58 308 0.0 4.0 0.01 0.04 0.00 93 1013.1
20260507053027 59 327 0.0 2.0 0.01 0.04 0.00 93 1012.8
20260507051514 59 316 1.0 3.0 0.01 0.04 0.00 93 1013.4
20260507050025 59 342 0.0 2.0 0.01 0.04 0.00 93 1013.3
20260507044520 59 314 0.0 2.0 0.00 0.03 0.03 93 1014.2
20260507043006 59 296 0.0 2.0 0.00 0.03 0.03 93 1013.5
20260507041513 60 251 0.0 2.0 0.00 0.03 0.03 93 1013.4
20260507040016 61 301 1.0 2.0 0.00 0.03 0.03 93 1013.6
20260507034521 61 281 0.0 2.0 0.00 0.03 0.03 93 1013.8
20260507033030 61 153 0.0 2.0 0.00 0.03 0.03 93 1013.3
20260507031511 61 306 0.0 2.0 0.00 0.03 0.03 93 1013.7
20260507030016 62 306 0.0 2.0 0.00 0.03 0.03 93 1014.3
20260507024521 62 306 0.0 1.0 0.00 0.03 0.03 93 1013.7
20260507023023 62 360 0.0 2.0 0.00 0.03 0.03 93 1013.6
20260507021525 62 65 0.0 1.0 0.00 0.03 0.03 93 1012.6
20260507020010 62 77 0.0 1.0 0.00 0.03 0.03 93 1012.9
20260507014521 62 60 0.0 2.0 0.00 0.03 0.03 93 1012.0
20260507013032 62 122 0.0 2.0 0.00 0.03 0.03 92 1012.4
20260507011531 62 122 0.0 2.0 0.00 0.03 0.03 92 1012.1
20260507010008 62 299 1.0 2.0 0.00 0.03 0.03 92 1012.1
20260507004516 63 28 0.0 2.0 0.00 0.03 0.03 92 1011.4
20260507003019 63 5 0.0 2.0 0.00 0.03 0.03 92 1011.8
20260507001528 62 119 0.0 2.0 0.00 0.03 0.03 92 1012.0
20260507000027 62 109 0.0 2.0 0.00 0.03 0.03 92 1012.8
20260506234514 62 42 0.0 2.0 0.00 0.03 0.03 91 1013.1
20260506233016 63 316 0.0 2.0 0.00 0.04 0.03 91 1013.5
20260506231522 64 281 0.0 3.0 0.00 0.04 0.03 90 1013.4
20260506230026 65 236 1.0 4.0 0.00 0.04 0.03 89 1012.9
20260506224527 67 288 1.0 6.0 0.00 0.04 0.03 87 1012.3
20260506223018 70 298 2.0 8.0 0.00 0.04 0.03 89 1011.1
20260506221518 72 320 1.0 2.0 0.00 0.04 0.03 90 1011.2
20260506220022 73 70 0.0 3.0 0.00 0.04 0.03 90 1010.9
20260506214525 73 304 1.0 3.0 0.00 0.04 0.03 90 1011.5
20260506213014 74 300 0.0 3.0 0.00 0.04 0.03 90 1010.9
20260506211520 74 287 0.0 2.0 0.01 0.04 0.03 88 1011.1
20260506210028 78 298 1.0 8.0 0.01 0.04 0.03 80 1010.9
20260506204526 79 188 0.0 3.0 0.01 0.04 0.03 79 1010.7
20260506203036 78 116 0.0 4.0 0.01 0.04 0.03 80 1011.0
20260506201518 78 165 1.0 2.0 0.00 0.03 0.02 81 1011.6
20260506200004 78 128 0.0 3.0 0.00 0.03 0.02 82 1011.6
20260506194505 78 238 0.0 2.0 0.00 0.03 0.02 83 1011.9
20260506193003 78 144 0.0 2.0 0.00 0.03 0.02 82 1012.0
20260506191506 77 186 0.0 2.0 0.00 0.03 0.02 84 1012.2
20260506184506 75 201 0.0 2.0 0.00 0.03 0.02 89 1012.8
20260506183003 75 201 0.0 2.0 0.00 0.03 0.02 87 1012.7
20260506181504 77 303 0.0 2.0 0.00 0.03 0.02 82 1012.7
20260506180009 77 350 0.0 2.0 0.00 0.04 0.02 81 1012.8
20260506174506 77 177 0.0 0.0 0.00 0.04 0.02 81 1012.9
20260506173013 77 177 0.0 4.0 0.00 0.04 0.02 81 1012.8
20260506171506 76 309 0.0 2.0 0.00 0.04 0.02 82 1012.9
20260506170006 76 115 0.0 2.0 0.00 0.04 0.02 81 1013.2
20260506164508 76 107 0.0 2.0 0.00 0.04 0.02 81 1013.2
20260506163004 77 254 0.0 6.0 0.00 0.04 0.02 80 1013.2
20260506161508 77 151 2.0 6.0 0.00 0.04 0.02 78 1013.0
20260506160009 77 119 1.0 5.0 0.00 0.04 0.02 79 1013.2
20260506154507 77 208 0.0 3.0 0.00 0.04 0.02 78 1013.4
20260506153010 77 292 0.0 4.0 0.00 0.04 0.02 78 1013.4